Weather History for Stuart, FL

Change the Weather History Date:

Saturday, December 29, 2012

  Actual Average Record
Temperature  
Mean Temperature 70 °F -  
Max Temperature 82 °F 77 °F 85 °F (1951)
Min Temperature 57 °F 57 °F 36 °F (1961)
Cooling Degree Days 6    
Growing Degree Days 20 (Base 50)    
Moisture  
Dew Point 66 °F    
Average Humidity 83    
Maximum Humidity 94    
Minimum Humidity 54    
Precipitation  
Precipitation 0.00 in - - ()
Sea Level Pressure  
Sea Level Pressure 30.01 in    
Wind  
Wind Speed 9 mph (SW)    
Max Wind Speed 21 mph    
Max Gust Speed 30 mph    
Visibility 9 miles    
Events      
Averages and records for this station are not official NWS values.
T = Trace of Precipitation, MM = Missing Value Source: NWS Daily Summary

Daily Weather History Graph

Daily Weather History Graph

Search for Another Location

Airport:

Trip Planner

Search our weather history database for the weather conditions in past years. The results will help you decide how hot, cold, wet, or windy it might be!

Date:

Astronomy

Dec. 29, 2012 Rise Set
Actual Time 7:09 AM EST 5:36 PM EST
Civil Twilight 6:44 AM EST 6:02 PM EST
Nautical Twilight 6:15 AM EST 6:31 PM EST
Astronomical Twilight 5:46 AM EST 6:59 PM EST
Moon 6:59 PM EST (12/29) 7:49 AM EST (12/29)
Length of Visible Light 11h 18m
Length of Day
10h 26m
Full, 98% of the Moon is Illuminated
Dec 29
Full
Jan 4
Last Quarter
Jan 11
New
Jan 18
First Quarter
Jan 26
Full

Hourly Weather History & Observations

Time (EST) Temp. Heat Index Dew Point Humidity Pressure Visibility Wind Dir Wind Speed Gust Speed Precip Events Conditions
12:15 AM 71.6 °F - 69.8 °F 94% 29.99 in 10.0 mi South 5.8 mph - N/A   Scattered Clouds
12:35 AM 71.6 °F - 69.8 °F 94% 29.98 in 10.0 mi South 6.9 mph - N/A   Mostly Cloudy
12:55 AM 71.6 °F - 69.8 °F 94% 29.97 in 10.0 mi South 6.9 mph - N/A   Overcast
1:15 AM 71.6 °F - 69.8 °F 94% 29.97 in 10.0 mi South 5.8 mph - N/A   Overcast
1:35 AM 71.6 °F - 69.8 °F 94% 29.97 in 10.0 mi South 5.8 mph - N/A   Overcast
1:55 AM 71.6 °F - 69.8 °F 94% 29.96 in 10.0 mi South 6.9 mph - N/A   Mostly Cloudy
2:15 AM 71.6 °F - 69.8 °F 94% 29.96 in 10.0 mi South 8.1 mph - N/A   Overcast
2:35 AM 71.6 °F - 69.8 °F 94% 29.96 in 10.0 mi SSW 5.8 mph - N/A   Mostly Cloudy
2:55 AM 71.6 °F - 69.8 °F 94% 29.96 in 10.0 mi South 6.9 mph - N/A   Scattered Clouds
3:15 AM 71.6 °F - 69.8 °F 94% 29.96 in 10.0 mi South 4.6 mph - N/A   Clear
3:35 AM 71.6 °F - 69.8 °F 94% 29.95 in 10.0 mi South 5.8 mph - N/A   Clear
3:55 AM 71.6 °F - 69.8 °F 94% 29.95 in 10.0 mi South 5.8 mph - N/A   Clear
4:15 AM 71.6 °F - 69.8 °F 94% 29.94 in 10.0 mi South 9.2 mph - N/A   Clear
4:35 AM 71.6 °F - 69.8 °F 94% 29.94 in 10.0 mi South 8.1 mph - N/A   Clear
4:55 AM 71.6 °F - 69.8 °F 94% 29.94 in 10.0 mi South 8.1 mph - N/A   Clear
5:15 AM 71.6 °F - 69.8 °F 94% 29.94 in 10.0 mi South 9.2 mph - N/A   Clear
6:47 AM 73.4 °F - 69.8 °F 88% 30.00 in 7.0 mi SW 10.4 mph - N/A   Scattered Clouds
7:47 AM 73.4 °F - 71.6 °F 94% 30.00 in 7.0 mi SSW 8.1 mph - N/A   Mostly Cloudy
8:47 AM 73.4 °F - 71.6 °F 94% 30.02 in 6.0 mi SW 11.5 mph 17.3 mph N/A   Overcast
9:47 AM 75.2 °F - 71.6 °F 89% 30.02 in 6.0 mi SW 11.5 mph 17.3 mph N/A   Overcast
10:47 AM 77.0 °F - 71.6 °F 83% 30.04 in 7.0 mi SW 13.8 mph 20.7 mph N/A   Overcast
11:47 AM 78.8 °F - 73.4 °F 83% 30.01 in 7.0 mi SW 15.0 mph 20.7 mph N/A   Mostly Cloudy
12:47 PM 80.6 °F 84.6 °F 71.6 °F 74% 29.95 in 7.0 mi WSW 13.8 mph 23.0 mph N/A   Mostly Cloudy
1:47 PM 82.4 °F 86.3 °F 69.8 °F 66% 29.94 in 7.0 mi WSW 19.6 mph 25.3 mph N/A   Mostly Cloudy
2:47 PM 82.4 °F 83.9 °F 64.4 °F 54% 29.93 in 7.0 mi WSW 20.7 mph 29.9 mph N/A   Mostly Cloudy
3:47 PM 82.4 °F 84.6 °F 66.2 °F 58% 29.92 in 7.0 mi WSW 17.3 mph 27.6 mph N/A   Mostly Cloudy
4:47 PM 80.6 °F 83.2 °F 68.0 °F 65% 29.93 in 7.0 mi West 13.8 mph 23.0 mph N/A   Mostly Cloudy
6:47 PM 77.0 °F - 68.0 °F 74% 29.97 in 7.0 mi West 13.8 mph 18.4 mph N/A   Mostly Cloudy
7:15 PM 73.4 °F - 66.2 °F 78% 30.00 in 10.0 mi West 10.4 mph - N/A   Clear
7:35 PM 73.4 °F - 64.4 °F 73% 30.02 in 10.0 mi WNW 16.1 mph 20.7 mph N/A   Scattered Clouds
7:55 PM 71.6 °F - 60.8 °F 69% 30.03 in 10.0 mi WNW 12.7 mph 17.3 mph N/A   Mostly Cloudy
8:15 PM 69.8 °F - 60.8 °F 73% 30.04 in 10.0 mi West 13.8 mph - N/A   Scattered Clouds
8:35 PM 68.0 °F - 60.8 °F 78% 30.05 in 10.0 mi West 10.4 mph 16.1 mph N/A   Scattered Clouds
8:55 PM 68.0 °F - 60.8 °F 78% 30.06 in 10.0 mi WNW 11.5 mph - N/A   Clear
9:15 PM 66.2 °F - 60.8 °F 83% 30.07 in 10.0 mi WNW 12.7 mph 16.1 mph N/A   Clear
9:35 PM 64.4 °F - 59.0 °F 83% 30.08 in 10.0 mi WNW 12.7 mph 19.6 mph N/A   Clear
9:55 PM 64.4 °F - 59.0 °F 83% 30.09 in 10.0 mi WNW 8.1 mph 16.1 mph N/A   Clear
10:15 PM 62.6 °F - 55.4 °F 77% 30.10 in 10.0 mi WNW 12.7 mph 18.4 mph N/A   Clear
10:35 PM 62.6 °F - 53.6 °F 72% 30.11 in 10.0 mi WNW 15.0 mph 19.6 mph N/A   Clear
10:55 PM 60.8 °F - 51.8 °F 72% 30.12 in 10.0 mi WNW 16.1 mph 19.6 mph N/A   Clear
11:15 PM 59.0 °F - 51.8 °F 77% 30.12 in 10.0 mi WNW 12.7 mph 17.3 mph N/A   Clear
11:35 PM 59.0 °F - 50.0 °F 72% 30.13 in 10.0 mi WNW 16.1 mph 21.9 mph N/A   Clear
11:55 PM 57.2 °F - 48.2 °F 72% 30.13 in 10.0 mi NW 17.3 mph 26.5 mph N/A   Clear